INTELSAT 11 (IS-11)

Last updated on Thu Nov 21 2024 00:02:41 GMT+0000 (Coordinated Universal Time)

1 32253U 07044B 24325.14380237 -.00000267 00000+0 00000+0 0 9998 2 32253 2.0678 85.7701 0004441 173.5469 169.1084 1.00270461 62734
UTC large
Height (km)
Speed (km/s)
/
Latitude / Longitude
Inclination (degrees)
Orbital Period (minutes)
Azimuth
Elevation
Range (km)
Doppler Factor

Next 0 passes for location: London (51.5072 / 0.1276)

Sorry there are no passes over London.